Location: Maccacari
(45.1333°N, 11.1333°E)
Time: 07:12:56
(UTC+00:00)

Tsikada Rocket - Pass Details

Date: 18 September 2020
Orbit: 958 x 1009 km, 82.9° (Epoch: 29 October)

Event Time Altitude Azimuth Distance (km) Brightness Sun altitude
Rises 17:54:47 0° 349° (N) 3,655 7.3 -6.9°
Reaches altitude 10° 17:57:18 10° 347° (NNW) 2,702 6.6 -7.4°
Maximum altitude 18:03:25 69° 266° (W) 1,024 4.4 -8.4°
Drops below altitude 10° 18:09:31 10° 184° (S) 2,688 6.2 -9.5°
Sets 18:12:01 0° 182° (S) 3,634 6.9 -9.9°
